Weather History for KMCD - November, 2013

Change the Weather History Date:

Saturday, November 9, 2013

  Actual Average Record
Temperature  
Mean Temperature 38 °F -  
Max Temperature 44 °F - - ()
Min Temperature 33 °F - - ()
Degree Days  
Heating Degree Days 26    
Moisture  
Dew Point 36 °F    
Average Humidity 86    
Maximum Humidity 97    
Minimum Humidity 67    
Precipitation  
Precipitation 0.15 in - - ()
Sea Level Pressure  
Sea Level Pressure 29.73 in    
Wind  
Wind Speed 13 mph (SSW)    
Max Wind Speed 33 mph    
Max Gust Speed 43 mph    
Visibility 8 miles    
Events Rain , Snow    
T = Trace of Precipitation, MM = Missing Value Source: NWS Daily Summary

Daily Weather History Graph

Daily Weather History Graph

Search for Another Location

Airport or City:

Trip Planner

Search our weather history database for the weather conditions in past years. The results will help you decide how hot, cold, wet, or windy it might be!

Date:

Astronomy

Nov. 09, 2013 Rise Set
Actual Time 7:30 AM EST 5:13 PM EST
Civil Twilight 6:58 AM EST 5:45 PM EST
Nautical Twilight 6:22 AM EST 6:21 PM EST
Astronomical Twilight 5:47 AM EST 6:56 PM EST
Moon 1:03 PM EST (11/9) 11:47 PM EST (11/9)
Length of Visible Light 10h 46m
Length of Day
9h 43m
Waxing Crescent, 44% of the Moon is Illuminated
Nov 9
Waxing Crescent
Nov 10
First Quarter
Nov 17
Full
Nov 25
Last Quarter
Dec 2
New

Hourly Weather History & Observations

Time (EST) Temp. Windchill Dew Point Humidity Pressure Visibility Wind Dir Wind Speed Gust Speed Precip Events Conditions
12:15 AM 37.9 °F 31.5 °F 28.4 °F 69% 30.05 in 10.0 mi South 9.2 mph 16.1 mph N/A   Overcast
12:36 AM 37.6 °F 33.1 °F 30.0 °F 74% 30.05 in 10.0 mi SSE 5.8 mph - N/A   Overcast
12:55 AM 38.3 °F 31.9 °F 30.0 °F 72% 30.04 in 10.0 mi South 9.2 mph - N/A   Overcast
1:15 AM 38.5 °F 32.1 °F 29.7 °F 71% 30.04 in 10.0 mi South 9.2 mph - N/A   Overcast
1:36 AM 38.5 °F 34.1 °F 28.6 °F 68% 30.02 in 10.0 mi South 5.8 mph - N/A   Overcast
1:55 AM 38.5 °F 32.7 °F 28.2 °F 67% 30.01 in 10.0 mi SSE 8.1 mph 19.6 mph N/A   Overcast
2:15 AM 37.6 °F 31.6 °F 29.3 °F 72% 29.99 in 10.0 mi SE 8.1 mph 17.3 mph N/A   Overcast
2:36 AM 37.4 °F 30.8 °F 29.8 °F 74% 29.96 in 10.0 mi ESE 9.2 mph - N/A   Overcast
2:55 AM 37.0 °F 31.6 °F 30.0 °F 76% 29.95 in 10.0 mi ESE 6.9 mph - N/A   Overcast
3:15 AM 36.7 °F 28.9 °F 30.0 °F 77% 29.95 in 10.0 mi ESE 11.5 mph 17.3 mph N/A   Overcast
3:35 AM 36.9 °F 30.1 °F 31.1 °F 80% 29.93 in 10.0 mi ESE 9.2 mph 16.1 mph N/A   Overcast
3:55 AM 37.4 °F 28.9 °F 31.8 °F 80% 29.92 in 10.0 mi SE 13.8 mph 21.9 mph N/A   Overcast
4:16 AM 36.7 °F 29.4 °F 32.0 °F 83% 29.88 in 10.0 mi ESE 10.4 mph 17.3 mph N/A   Overcast
4:35 AM 37.4 °F 30.3 °F 32.4 °F 82% 29.86 in 10.0 mi ESE 10.4 mph 16.1 mph N/A   Overcast
4:55 AM 37.8 °F 29.8 °F 32.2 °F 80% 29.84 in 10.0 mi ESE 12.7 mph 19.6 mph N/A   Overcast
5:16 AM 38.3 °F 33.2 °F 32.0 °F 78% 29.85 in 10.0 mi SE 6.9 mph 17.3 mph N/A   Overcast
5:35 AM 36.7 °F 28.4 °F 32.0 °F 83% 29.84 in 7.0 mi SSE 12.7 mph 23.0 mph N/A Snow Light Snow
5:56 AM 34.2 °F 26.2 °F 32.5 °F 94% 29.82 in 2.0 mi SE 10.4 mph 21.9 mph 0.03 in Snow Light Snow
6:15 AM 33.6 °F 25.0 °F 32.5 °F 96% 29.81 in 2.0 mi SE 11.5 mph 17.3 mph 0.02 in Snow Light Snow
6:35 AM 34.2 °F 27.5 °F 33.3 °F 97% 29.79 in 4.0 mi SE 8.1 mph 20.7 mph 0.04 in Snow Light Snow
6:56 AM 34.9 °F 25.7 °F 33.8 °F 96% 29.77 in 5.0 mi SE 13.8 mph 26.5 mph 0.06 in Snow Light Snow
7:15 AM 34.7 °F 26.9 °F 33.8 °F 97% 29.77 in 5.0 mi SE 10.4 mph 25.3 mph 0.01 in Snow Light Snow
7:35 AM 34.9 °F 26.6 °F 34.0 °F 97% 29.76 in 7.0 mi SE 11.5 mph 24.2 mph 0.02 in Snow Light Snow
7:56 AM 35.1 °F 26.4 °F 34.2 °F 97% 29.75 in 7.0 mi SSE 12.7 mph 24.2 mph 0.03 in Snow Light Snow
8:15 AM 35.6 °F 27.5 °F 34.7 °F 97% 29.73 in 10.0 mi SSE 11.5 mph 20.7 mph N/A   Overcast
8:35 AM 35.8 °F 27.3 °F 34.7 °F 96% 29.72 in 10.0 mi SSE 12.7 mph 24.2 mph N/A   Overcast
8:56 AM 36.1 °F 26.2 °F 34.9 °F 95% 29.71 in 10.0 mi SSE 17.3 mph 25.3 mph N/A   Overcast
9:15 AM 36.3 °F 26.8 °F 35.1 °F 95% 29.70 in 5.0 mi SSE 16.1 mph 24.2 mph N/A   Overcast
9:35 AM 36.5 °F 27.4 °F 35.1 °F 95% 29.68 in 10.0 mi SSE 15.0 mph 21.9 mph N/A   Overcast
9:56 AM 36.9 °F 27.5 °F 35.6 °F 95% 29.67 in 10.0 mi SSE 16.1 mph 25.3 mph N/A   Overcast
10:15 AM 37.4 °F 28.2 °F 36.0 °F 95% 29.65 in 10.0 mi SSE 16.1 mph 23.0 mph N/A   Overcast
10:35 AM 37.9 °F 29.6 °F 36.1 °F 93% 29.65 in 10.0 mi SSE 13.8 mph 21.9 mph N/A   Overcast
10:55 AM 38.5 °F 30.7 °F 36.5 °F 93% 29.63 in 10.0 mi SSE 12.7 mph 20.7 mph N/A   Overcast
11:15 AM 39.2 °F 32.0 °F 37.0 °F 92% 29.63 in 10.0 mi South 11.5 mph 21.9 mph N/A   Overcast
11:35 AM 39.7 °F 33.7 °F 37.4 °F 91% 29.62 in 10.0 mi South 9.2 mph 18.4 mph N/A   Overcast
11:56 AM 40.3 °F 34.4 °F 38.1 °F 92% 29.61 in 10.0 mi South 9.2 mph - N/A   Overcast
12:15 PM 41.0 °F 33.9 °F 38.5 °F 91% 29.60 in 10.0 mi South 12.7 mph 20.7 mph N/A   Overcast
12:35 PM 41.5 °F 34.2 °F 39.2 °F 91% 29.60 in 10.0 mi South 13.8 mph 23.0 mph N/A   Overcast
12:55 PM 41.9 °F 35.4 °F 40.1 °F 93% 29.59 in 7.0 mi SSW 11.5 mph 17.3 mph N/A   Overcast
1:15 PM 43.3 °F 37.2 °F 41.7 °F 94% 29.59 in 7.0 mi SW 11.5 mph 17.3 mph N/A Rain Light Rain
1:36 PM 44.1 °F 37.7 °F 42.8 °F 95% 29.59 in 7.0 mi SW 12.7 mph 19.6 mph 0.01 in Rain Rain
1:55 PM 44.2 °F 38.8 °F 43.3 °F 97% 29.59 in 5.0 mi SW 10.4 mph 19.6 mph 0.02 in Rain Light Rain
2:15 PM 44.6 °F 38.8 °F 43.7 °F 97% 29.58 in 1.8 mi WSW 11.5 mph 19.6 mph N/A Rain Rain
2:35 PM 43.9 °F 37.5 °F 43.2 °F 97% 29.59 in 1.8 mi West 12.7 mph 23.0 mph 0.01 in Rain Light Rain
2:55 PM 43.7 °F 35.7 °F 42.1 °F 94% 29.59 in 5.0 mi West 18.4 mph 21.9 mph 0.01 in   Overcast
3:16 PM 43.2 °F 35.9 °F 41.9 °F 95% 29.60 in 2.5 mi West 15.0 mph 21.9 mph N/A   Overcast
3:35 PM 43.0 °F 36.4 °F 41.9 °F 96% 29.60 in 4.0 mi West 12.7 mph - N/A   Overcast
3:55 PM 43.7 °F 36.0 °F 41.0 °F 90% 29.61 in 10.0 mi West 17.3 mph 26.5 mph N/A   Overcast
4:16 PM 42.4 °F 33.8 °F 41.0 °F 95% 29.61 in 5.0 mi West 19.6 mph 25.3 mph N/A   Overcast
4:35 PM 42.3 °F 33.8 °F 41.0 °F 95% 29.62 in 4.0 mi West 18.4 mph 26.5 mph N/A   Overcast
4:55 PM 42.1 °F 34.2 °F 39.9 °F 92% 29.63 in 10.0 mi West 16.1 mph 20.7 mph N/A Rain Light Rain
5:16 PM 41.9 °F 33.4 °F 39.2 °F 90% 29.63 in 7.0 mi West 18.4 mph 23.0 mph N/A Rain Light Rain
5:35 PM 41.5 °F 31.9 °F 39.4 °F 92% 29.64 in 4.0 mi West 23.0 mph 28.8 mph N/A Rain Light Rain
5:55 PM 41.2 °F 31.6 °F 39.0 °F 92% 29.65 in 7.0 mi West 21.9 mph 26.5 mph N/A Rain Light Rain
6:16 PM 41.0 °F 30.5 °F 38.1 °F 89% 29.66 in 10.0 mi West 26.5 mph 34.5 mph N/A Rain Rain
6:35 PM 40.6 °F 30.7 °F 37.2 °F 88% 29.66 in 10.0 mi West 23.0 mph 32.2 mph N/A Rain Light Rain
6:56 PM 41.2 °F 31.1 °F 37.4 °F 86% 29.67 in 10.0 mi West 24.2 mph 34.5 mph N/A   Overcast
7:15 PM 40.5 °F 30.2 °F 37.0 °F 88% 29.67 in 7.0 mi West 24.2 mph 38.0 mph N/A Rain Light Rain
7:35 PM 40.5 °F 29.1 °F 36.7 °F 86% 29.68 in 10.0 mi West 29.9 mph 36.8 mph N/A Rain Light Rain
7:56 PM 41.0 °F 30.2 °F 36.0 °F 82% 29.68 in 10.0 mi West 27.6 mph 34.5 mph N/A   Overcast
8:15 PM 41.2 °F 30.7 °F 35.8 °F 81% 29.68 in 10.0 mi West 26.5 mph 36.8 mph N/A   Overcast
8:35 PM 41.0 °F 29.3 °F 35.6 °F 81% 29.68 in 10.0 mi West 33.4 mph 40.3 mph N/A   Overcast
8:56 PM 41.0 °F 30.7 °F 35.1 °F 79% 29.69 in 10.0 mi West 25.3 mph 35.7 mph N/A Rain Light Rain
9:15 PM 41.5 °F 30.8 °F 34.7 °F 77% 29.69 in 10.0 mi West 28.8 mph 40.3 mph N/A   Overcast
9:35 PM 41.9 °F 31.1 °F 34.0 °F 73% 29.69 in 10.0 mi West 29.9 mph 42.6 mph N/A   Overcast
9:56 PM 41.9 °F 31.7 °F 34.2 °F 74% 29.69 in 10.0 mi West 26.5 mph 39.1 mph N/A   Overcast
10:15 PM 41.9 °F 31.9 °F 33.8 °F 73% 29.69 in 10.0 mi West 25.3 mph 40.3 mph N/A   Overcast
10:35 PM 41.9 °F 32.3 °F 33.6 °F 72% 29.68 in 10.0 mi West 23.0 mph 36.8 mph N/A   Overcast
10:56 PM 41.9 °F 30.9 °F 34.0 °F 73% 29.69 in 10.0 mi West 31.1 mph 41.4 mph N/A   Overcast
11:15 PM 41.9 °F 30.7 °F 34.0 °F 73% 29.69 in 10.0 mi West 32.2 mph 41.4 mph N/A   Overcast
11:35 PM 41.9 °F 30.9 °F 34.7 °F 76% 29.68 in 10.0 mi West 31.1 mph 41.4 mph N/A   Overcast
11:56 PM 41.5 °F 30.6 °F 34.7 °F 77% 29.69 in 10.0 mi West 29.9 mph 39.1 mph N/A   Overcast